• In Belarus
  • List of Countries
  • For 7 days
  • Water Temperature
  • Satellite Maps
  • Weather Map
  • Weather Widgets
  • user-avatar
    Login

    Hourly Weather Arciechow

    Today, 21 February, Thursday

    Time Temperature Precipitation Wind Pressure Humidity
    00:00 +1°C° 0 mm 4 mps 758 mmHg 83%
    01:00 +2°C° 0 mm 3 mps 758 mmHg 85%
    02:00 +2°C° 0 mm 3 mps 758 mmHg 88%
    03:00 +1°C° 0 mm 3 mps 758 mmHg 90%
    04:00 +1°C° 0 mm 3 mps 758 mmHg 93%
    05:00 +1°C° 0 mm 3 mps 758 mmHg 93%
    06:00 +1°C° 0 mm 3 mps 758 mmHg 94%
    07:00 +2°C° 0 mm 2 mps 758 mmHg 95%
    08:00 +3°C° 0.2 mm 2 mps 758 mmHg 95%
    09:00 +3°C° 0.2 mm 2 mps 758 mmHg 94%
    10:00 +4°C° 0.2 mm 2 mps 758 mmHg 94%
    11:00 +4°C° 0.5 mm 2 mps 758 mmHg 94%
    12:00 +4°C° 0.5 mm 2 mps 758 mmHg 93%
    13:00 +5°C° 0 mm 1 mps 757 mmHg 95%
    14:00 +4°C° 1.1 mm 2 mps 757 mmHg 94%
    15:00 +4°C° 1.1 mm 2 mps 757 mmHg 94%
    16:00 +4°C° 1.1 mm 2 mps 756 mmHg 94%
    17:00 +4°C° 0.9 mm 2 mps 757 mmHg 94%
    18:00 +3°C° 0.9 mm 2 mps 757 mmHg 94%
    19:00 +3°C° 0.9 mm 2 mps 757 mmHg 94%
    20:00 +1°C° 0.7 mm 3 mps 757 mmHg 93%
    21:00 0°C° 0.7 mm 5 mps 757 mmHg 91%
    22:00 -2°C° 0.7 mm 6 mps 757 mmHg 90%
    23:00 -3°C° 0.4 mm 6 mps 758 mmHg 87%

    Tomorrow, 22 February, Friday

    Time Temperature Precipitation Wind Pressure Humidity
    00:00 -3°C° 0.4 mm 6 mps 758 mmHg 84%
    01:00 -4°C° 0.4 mm 6 mps 759 mmHg 81%
    02:00 -4°C° 0 mm 6 mps 760 mmHg 77%
    03:00 -5°C° 0 mm 5 mps 761 mmHg 72%
    04:00 -5°C° 0 mm 5 mps 762 mmHg 67%
    05:00 -6°C° 0 mm 5 mps 763 mmHg 67%
    06:00 -6°C° 0 mm 6 mps 765 mmHg 67%
    07:00 -8°C° 0 mm 6 mps 766 mmHg 67%
    08:00 -8°C° 0 mm 6 mps 767 mmHg 62%
    09:00 -6°C° 0 mm 6 mps 768 mmHg 56%
    10:00 -6°C° 0 mm 6 mps 769 mmHg 51%
    11:00 -5°C° 0 mm 6 mps 769 mmHg 49%
    12:00 -5°C° 0 mm 5 mps 770 mmHg 47%
    13:00 -4°C° 0 mm 5 mps 770 mmHg 45%
    14:00 -5°C° 0 mm 5 mps 771 mmHg 45%
    15:00 -5°C° 0 mm 5 mps 771 mmHg 45%
    16:00 -5°C° 0 mm 5 mps 771 mmHg 45%
    17:00 -5°C° 0 mm 5 mps 772 mmHg 47%
    18:00 -5°C° 0 mm 4 mps 772 mmHg 49%
    19:00 -5°C° 0 mm 4 mps 773 mmHg 51%
    20:00 -5°C° 0 mm 4 mps 773 mmHg 50%
    21:00 -5°C° 0 mm 4 mps 774 mmHg 50%
    22:00 -5°C° 0 mm 4 mps 774 mmHg 50%
    23:00 -5°C° 0 mm 3 mps 774 mmHg 51%

    Day after tomorrow, 23 February, Saturday

    Time Temperature Precipitation Wind Pressure Humidity
    00:00 -6°C° 0 mm 3 mps 775 mmHg 53%
    01:00 -6°C° 0 mm 3 mps 775 mmHg 54%
    02:00 -6°C° 0 mm 3 mps 775 mmHg 56%
    03:00 -5°C° 0 mm 2 mps 775 mmHg 58%
    04:00 -5°C° 0 mm 2 mps 775 mmHg 60%
    05:00 -5°C° 0 mm 2 mps 775 mmHg 60%
    06:00 -5°C° 0 mm 2 mps 775 mmHg 60%
    07:00 -6°C° 0 mm 2 mps 775 mmHg 61%
    08:00 -5°C° 0 mm 2 mps 775 mmHg 56%
    09:00 -4°C° 0 mm 2 mps 776 mmHg 50%
    10:00 -1°C° 0 mm 1 mps 776 mmHg 45%
    11:00 0°C° 0 mm 1 mps 775 mmHg 42%
    12:00 0°C° 0 mm 1 mps 775 mmHg 39%
    13:00 +1°C° 0 mm 1 mps 775 mmHg 35%
    14:00 +1°C° 0 mm 1 mps 774 mmHg 37%
    15:00 +1°C° 0 mm 1 mps 774 mmHg 38%
    16:00 +1°C° 0 mm 1 mps 774 mmHg 39%
    17:00 0°C° 0 mm 1 mps 774 mmHg 42%
    18:00 0°C° 0 mm 1 mps 774 mmHg 44%
    19:00 -1°C° 0 mm 1 mps 774 mmHg 46%
    20:00 -2°C° 0 mm 2 mps 773 mmHg 46%
    21:00 -2°C° 0 mm 2 mps 773 mmHg 46%
    22:00 -2°C° 0 mm 2 mps 773 mmHg 46%
    23:00 -2°C° 0 mm 2 mps 773 mmHg 46%

    24 February, Sunday

    Time Temperature Precipitation Wind Pressure Humidity
    00:00 -2°C° 0 mm 3 mps 772 mmHg 46%
    01:00 -2°C° 0 mm 3 mps 772 mmHg 46%
    02:00 -2°C° 0 mm 3 mps 772 mmHg 46%
    03:00 -2°C° 0 mm 3 mps 771 mmHg 46%
    04:00 -2°C° 0 mm 3 mps 771 mmHg 45%
    05:00 -2°C° 0 mm 3 mps 771 mmHg 46%
    06:00 -2°C° 0 mm 3 mps 771 mmHg 46%
    07:00 -2°C° 0 mm 3 mps 771 mmHg 46%
    08:00 -1°C° 0 mm 3 mps 770 mmHg 45%
    09:00 -1°C° 0 mm 4 mps 770 mmHg 43%
    10:00 -1°C° 0 mm 4 mps 770 mmHg 42%
    11:00 +1°C° 0 mm 3 mps 770 mmHg 43%
    12:00 +2°C° 0 mm 3 mps 770 mmHg 44%
    13:00 +2°C° 0 mm 3 mps 769 mmHg 44%
    14:00 +3°C° 0 mm 2 mps 769 mmHg 49%
    15:00 +3°C° 0 mm 2 mps 769 mmHg 53%
    16:00 +3°C° 0 mm 2 mps 769 mmHg 57%
    17:00 +2°C° 0 mm 2 mps 769 mmHg 61%
    18:00 +1°C° 0 mm 2 mps 769 mmHg 66%
    19:00 +1°C° 0 mm 2 mps 769 mmHg 70%
    20:00 +1°C° 0 mm 2 mps 769 mmHg 72%
    21:00 -1°C° 0 mm 2 mps 769 mmHg 74%
    22:00 -1°C° 0 mm 2 mps 769 mmHg 77%
    23:00 -1°C° 0 mm 2 mps 769 mmHg 80%

    25 February, Monday

    Time Temperature Precipitation Wind Pressure Humidity
    00:00 -1°C° 0 mm 3 mps 769 mmHg 84%
    01:00 -1°C° 0 mm 3 mps 769 mmHg 88%
    02:00 -1°C° 0 mm 3 mps 769 mmHg 89%
    03:00 -1°C° 0 mm 3 mps 769 mmHg 91%
    04:00 -1°C° 0 mm 3 mps 769 mmHg 92%
    05:00 -1°C° 0 mm 3 mps 769 mmHg 93%
    06:00 -1°C° 0 mm 3 mps 769 mmHg 93%
    07:00 -1°C° 0 mm 3 mps 769 mmHg 94%
    08:00 0°C° 0 mm 3 mps 769 mmHg 94%
    09:00 +1°C° 0 mm 3 mps 769 mmHg 93%
    10:00 +3°C° 0 mm 2 mps 769 mmHg 93%
    11:00 +2°C° 0 mm 3 mps 769 mmHg 91%
    12:00 +3°C° 0 mm 3 mps 769 mmHg 90%
    13:00 +3°C° 0 mm 3 mps 769 mmHg 88%
    14:00 +3°C° 0 mm 3 mps 769 mmHg 89%
    15:00 +4°C° 0 mm 2 mps 769 mmHg 90%
    16:00 +4°C° 0 mm 2 mps 769 mmHg 91%
    17:00 +3°C° 0 mm 2 mps 768 mmHg 92%
    18:00 +2°C° 0 mm 2 mps 768 mmHg 94%
    19:00 +1°C° 0 mm 2 mps 768 mmHg 96%
    20:00 +1°C° 0 mm 2 mps 768 mmHg 95%
    21:00 0°C° 0 mm 3 mps 767 mmHg 95%
    22:00 0°C° 0 mm 3 mps 767 mmHg 95%
    23:00 0°C° 0 mm 3 mps 766 mmHg 94%

    26 February, Tuesday

    Time Temperature Precipitation Wind Pressure Humidity
    00:00 +1°C° 0 mm 3 mps 766 mmHg 92%
    01:00 0°C° 0 mm 4 mps 765 mmHg 91%
    02:00 0°C° 0 mm 4 mps 765 mmHg 90%
    03:00 0°C° 0 mm 3 mps 764 mmHg 89%
    04:00 0°C° 0 mm 3 mps 764 mmHg 88%
    05:00 0°C° 0 mm 3 mps 763 mmHg 88%
    06:00 0°C° 0 mm 3 mps 763 mmHg 89%
    07:00 -1°C° 0 mm 3 mps 763 mmHg 89%
    08:00 +1°C° 0 mm 3 mps 762 mmHg 85%
    09:00 +2°C° 0 mm 3 mps 762 mmHg 80%
    10:00 +3°C° 0 mm 3 mps 762 mmHg 75%
    11:00 +4°C° 0 mm 4 mps 762 mmHg 74%
    12:00 +5°C° 0 mm 4 mps 761 mmHg 72%
    13:00 +6°C° 0 mm 4 mps 761 mmHg 71%
    14:00 +6°C° 0 mm 4 mps 761 mmHg 74%
    15:00 +5°C° 0 mm 4 mps 760 mmHg 77%
    16:00 +5°C° 0 mm 4 mps 760 mmHg 80%
    17:00 +4°C° 0 mm 4 mps 760 mmHg 82%
    18:00 +4°C° 0 mm 4 mps 760 mmHg 85%
    19:00 +2°C° 0 mm 5 mps 760 mmHg 88%
    20:00 +1°C° 0 mm 5 mps 760 mmHg 88%
    21:00 +1°C° 0 mm 5 mps 761 mmHg 87%
    22:00 +1°C° 0 mm 5 mps 761 mmHg 86%
    23:00 0°C° 0 mm 5 mps 761 mmHg 85%
    Show more